TimeCDT,TemperatureF,Dew PointF,Humidity,Sea Level PressureIn,VisibilityMPH,Wind Direction,Wind SpeedMPH,Gust SpeedMPH,PrecipitationIn,Events,Conditions,WindDirDegrees,DateUTC
12:35 AM,33.8,28.4,81,30.10,10.0,Calm,Calm,-,N/A,,Clear,0,2013-03-12 05:35:00
12:55 AM,32.0,26.6,80,30.10,10.0,Calm,Calm,-,N/A,,Clear,0,2013-03-12 05:55:00
1:15 AM,32.0,28.4,87,30.10,10.0,Calm,Calm,-,N/A,,Clear,0,2013-03-12 06:15:00
1:35 AM,33.8,28.4,81,30.10,10.0,Calm,Calm,-,N/A,,Clear,0,2013-03-12 06:35:00
1:55 AM,32.0,28.4,87,30.11,10.0,Calm,Calm,-,N/A,,Clear,0,2013-03-12 06:55:00
2:15 AM,30.2,26.6,86,30.11,10.0,Calm,Calm,-,N/A,,Clear,0,2013-03-12 07:15:00
2:35 AM,30.2,28.4,93,30.11,10.0,Calm,Calm,-,N/A,,Clear,0,2013-03-12 07:35:00
2:55 AM,32.0,26.6,80,30.10,10.0,Calm,Calm,-,N/A,,Clear,0,2013-03-12 07:55:00
3:15 AM,30.2,26.6,86,30.10,10.0,Calm,Calm,-,N/A,,Clear,0,2013-03-12 08:15:00
3:35 AM,30.2,26.6,86,30.09,10.0,Calm,Calm,-,N/A,,Clear,0,2013-03-12 08:35:00
3:55 AM,30.2,26.6,86,30.09,10.0,Calm,Calm,-,N/A,,Clear,0,2013-03-12 08:55:00
4:15 AM,30.2,26.6,86,30.08,10.0,Calm,Calm,-,N/A,,Clear,0,2013-03-12 09:15:00
4:35 AM,30.2,26.6,86,30.08,10.0,Calm,Calm,-,N/A,,Clear,0,2013-03-12 09:35:00
4:55 AM,30.2,26.6,86,30.08,10.0,Calm,Calm,-,N/A,,Clear,0,2013-03-12 09:55:00
5:15 AM,30.2,26.6,86,30.08,10.0,Calm,Calm,-,N/A,,Clear,0,2013-03-12 10:15:00
5:35 AM,28.4,24.8,86,30.09,10.0,Calm,Calm,-,N/A,,Clear,0,2013-03-12 10:35:00
5:55 AM,28.4,24.8,86,30.10,10.0,Calm,Calm,-,N/A,,Clear,0,2013-03-12 10:55:00
6:15 AM,28.4,24.8,86,30.10,10.0,Calm,Calm,-,N/A,,Clear,0,2013-03-12 11:15:00
6:35 AM,30.2,24.8,80,30.12,10.0,Calm,Calm,-,N/A,,Clear,0,2013-03-12 11:35:00
6:55 AM,28.4,24.8,86,30.13,10.0,Calm,Calm,-,N/A,,Clear,0,2013-03-12 11:55:00
7:15 AM,28.4,24.8,86,30.13,10.0,Calm,Calm,-,N/A,,Clear,0,2013-03-12 12:15:00
7:35 AM,30.2,24.8,80,30.14,10.0,Calm,Calm,-,N/A,,Clear,0,2013-03-12 12:35:00
7:55 AM,30.2,26.6,86,30.14,10.0,Calm,Calm,-,N/A,,Clear,0,2013-03-12 12:55:00
8:15 AM,30.2,28.4,93,30.15,10.0,Calm,Calm,-,N/A,,Clear,0,2013-03-12 13:15:00
8:35 AM,32.0,26.6,80,30.17,10.0,Calm,Calm,-,N/A,,Clear,0,2013-03-12 13:35:00
8:55 AM,35.6,30.2,81,30.18,10.0,Calm,Calm,-,N/A,,Clear,0,2013-03-12 13:55:00
9:15 AM,41.0,33.8,76,30.20,10.0,Calm,Calm,-,N/A,,Clear,0,2013-03-12 14:15:00
9:35 AM,46.4,33.8,62,30.21,10.0,Calm,Calm,-,N/A,,Clear,0,2013-03-12 14:35:00
9:55 AM,48.2,37.4,66,30.22,10.0,Calm,Calm,-,N/A,,Clear,0,2013-03-12 14:55:00
10:15 AM,53.6,26.6,35,30.23,10.0,ENE,5.8,-,N/A,,Clear,60,2013-03-12 15:15:00
10:35 AM,53.6,26.6,35,30.23,10.0,East,8.1,-,N/A,,Clear,80,2013-03-12 15:35:00
10:55 AM,55.4,26.6,33,30.23,10.0,ESE,4.6,-,N/A,,Clear,110,2013-03-12 15:55:00
11:15 AM,57.2,26.6,31,30.24,10.0,East,5.8,-,N/A,,Clear,100,2013-03-12 16:15:00
11:35 AM,57.2,26.6,31,30.24,10.0,ENE,6.9,-,N/A,,Clear,70,2013-03-12 16:35:00
11:55 AM,59.0,26.6,29,30.24,10.0,ENE,5.8,-,N/A,,Clear,60,2013-03-12 16:55:00
12:15 PM,60.8,26.6,27,30.23,10.0,NE,5.8,-,N/A,,Clear,50,2013-03-12 17:15:00
12:35 PM,60.8,28.4,29,30.23,10.0,ESE,5.8,-,N/A,,Clear,120,2013-03-12 17:35:00
12:55 PM,62.6,28.4,27,30.22,10.0,East,6.9,16.1,N/A,,Clear,90,2013-03-12 17:55:00
1:15 PM,62.6,26.6,26,30.22,10.0,SSE,3.5,-,N/A,,Clear,150,2013-03-12 18:15:00
1:35 PM,62.6,26.6,26,30.21,10.0,ESE,5.8,-,N/A,,Clear,110,2013-03-12 18:35:00
1:55 PM,64.4,28.4,26,30.20,10.0,NNE,3.5,-,N/A,,Clear,30,2013-03-12 18:55:00
2:15 PM,64.4,28.4,26,30.19,10.0,ESE,5.8,-,N/A,,Clear,110,2013-03-12 19:15:00
2:35 PM,66.2,28.4,24,30.18,10.0,Calm,Calm,-,N/A,,Clear,0,2013-03-12 19:35:00
2:55 PM,66.2,28.4,24,30.18,10.0,East,5.8,-,N/A,,Clear,90,2013-03-12 19:55:00
3:15 PM,66.2,30.2,26,30.17,10.0,North,8.1,-,N/A,,Clear,360,2013-03-12 20:15:00
3:35 PM,66.2,28.4,24,30.16,10.0,ESE,6.9,-,N/A,,Clear,110,2013-03-12 20:35:00
3:55 PM,66.2,28.4,24,30.15,10.0,East,5.8,-,N/A,,Clear,100,2013-03-12 20:55:00
4:15 PM,66.2,26.6,23,30.15,10.0,SE,3.5,-,N/A,,Clear,130,2013-03-12 21:15:00
4:35 PM,66.2,28.4,24,30.15,10.0,South,6.9,-,N/A,,Clear,190,2013-03-12 21:35:00
4:55 PM,68.0,30.2,24,30.15,10.0,ENE,4.6,-,N/A,,Clear,70,2013-03-12 21:55:00
5:15 PM,66.2,28.4,24,30.15,10.0,SSE,6.9,-,N/A,,Clear,150,2013-03-12 22:15:00
5:35 PM,66.2,28.4,24,30.15,10.0,SE,5.8,-,N/A,,Clear,130,2013-03-12 22:35:00
5:55 PM,66.2,28.4,24,30.15,10.0,SE,5.8,-,N/A,,Clear,140,2013-03-12 22:55:00
6:15 PM,66.2,28.4,24,30.16,10.0,East,3.5,-,N/A,,Clear,100,2013-03-12 23:15:00
6:35 PM,66.2,28.4,24,30.17,10.0,Calm,Calm,-,N/A,,Clear,0,2013-03-12 23:35:00
6:55 PM,66.2,33.8,30,30.18,10.0,Calm,Calm,-,N/A,,Clear,0,2013-03-12 23:55:00
7:15 PM,62.6,32.0,32,30.19,10.0,Calm,Calm,-,N/A,,Clear,0,2013-03-13 00:15:00
7:35 PM,55.4,35.6,47,30.19,10.0,Calm,Calm,-,N/A,,Clear,0,2013-03-13 00:35:00
7:55 PM,51.8,35.6,54,30.20,10.0,Calm,Calm,-,N/A,,Clear,0,2013-03-13 00:55:00
8:15 PM,51.8,32.0,47,30.21,10.0,Calm,Calm,-,N/A,,Clear,0,2013-03-13 01:15:00
8:35 PM,51.8,30.2,44,30.21,10.0,Calm,Calm,-,N/A,,Clear,0,2013-03-13 01:35:00
8:55 PM,48.2,32.0,54,30.22,10.0,Calm,Calm,-,N/A,,Clear,0,2013-03-13 01:55:00
9:15 PM,48.2,35.6,62,30.23,10.0,Calm,Calm,-,N/A,,Clear,0,2013-03-13 02:15:00
9:35 PM,46.4,35.6,66,30.24,10.0,Calm,Calm,-,N/A,,Clear,0,2013-03-13 02:35:00
9:55 PM,46.4,35.6,66,30.25,10.0,Calm,Calm,-,N/A,,Clear,0,2013-03-13 02:55:00
10:15 PM,46.4,35.6,66,30.26,10.0,Calm,Calm,-,N/A,,Clear,0,2013-03-13 03:15:00
10:35 PM,44.6,35.6,71,30.26,10.0,Calm,Calm,-,N/A,,Clear,0,2013-03-13 03:35:00
10:55 PM,42.8,35.6,76,30.27,10.0,Calm,Calm,-,N/A,,Clear,0,2013-03-13 03:55:00
11:15 PM,42.8,33.8,70,30.28,10.0,Calm,Calm,-,N/A,,Clear,0,2013-03-13 04:15:00
11:35 PM,42.8,33.8,70,30.28,10.0,Calm,Calm,-,N/A,,Clear,0,2013-03-13 04:35:00
11:55 PM,42.8,33.8,70,30.29,10.0,Calm,Calm,-,N/A,,Clear,0,2013-03-13 04:55:00